Regional Weather Roundup
Issued by NWS

Home | Current Version | Previous Version | Graphics & Text | Print | Product List | Glossary On
Versions: 1 2 3 4 5 6 7 8 9 10 11 12 13 14 15 16 17 18 19 20 21 22 23 24 25 26 27 28 29 30 31 32 33 34 35 36 37 38 39 40 41 42 43 44 45 46 47 48 49 50
000
ASUS43 KFSD 140002
RWRSD

WEATHER ROUNDUP FOR SOUTH DAKOTA
NATIONAL WEATHER SERVICE SIOUX FALLS SD
700 PM CDT SUN JUL 13 2014

NOTE: "FAIR" INDICATES FEW OR NO CLOUDS BELOW 12,000 FEET WITH NO
SIGNIFICANT WEATHER AND/OR OBSTRUCTIONS TO VISIBILITY.


SDZ001>005-009-010-012>017-140100-
NORTHWEST AND NORTH CENTRAL SOUTH DAKOTA

CITY           SKY/WX    TMP DP  RH WIND       PRES   REMARKS
BUFFALO          N/A     77  47  34 N23G31    30.06S
FAITH            N/A     77  48  35 N20G26    30.09R
MOBRIDGE       SUNNY     75  45  34 NW14G26   30.01S
$$

SDZ012>016-024>037-041>051-057-063-072>074-140100-
SOUTHWEST AND SOUTH CENTRAL SOUTH DAKOTA

CITY           SKY/WX    TMP DP  RH WIND       PRES   REMARKS
RAPID CTY ARPT CLOUDY    83  54  36 NE14      30.11S
PIERRE         SUNNY     78  55  44 N12       30.01F
CUSTER         MOSUNNY   73  50  44 E8        30.26S
ELLSWORTH AFB  SUNNY     84  51  32 N15       30.11S
PHILIP         MOSUNNY   82  55  39 N12       30.05S
PINE RIDGE     SUNNY     82  56  40 NE12      30.10F
WINNER         FAIR      84  52  33 N14       30.02F
$$

SDZ004>011-016>023-039-040-140100-
NORTHEAST SOUTH DAKOTA

CITY           SKY/WX    TMP DP  RH WIND       PRES   REMARKS
ABERDEEN       SUNNY     75  41  29 NW18      29.98F
WATERTOWN      SUNNY     73  45  36 NW15      29.98S
SISSETON         N/A     74  43  32 N20G29    29.93S
$$

SDZ017-020-022-023-036>040-048>070-140100-
SOUTHEAST SOUTH DAKOTA

CITY           SKY/WX    TMP DP  RH WIND       PRES   REMARKS
SIOUX FALLS    SUNNY     80  59  48 NW14      29.96S
HURON          SUNNY     77  47  34 N14       29.98S
CHAMBERLAIN    MOSUNNY   80  54  40 NW16G24   30.01F
MITCHELL       SUNNY     80  52  37 N16       29.98S
YANKTON        SUNNY     81  63  54 NW8       29.96F
$$

ABBREVIATIONS USED IN REMARKS
   TC - TEMPERATURE IN CELSIUS
  WCI - WIND CHILL INDEX
   HX - HEAT INDEX
  VSB - VISIBILITY



USA.gov is the U.S. government's official web portal to all federal, state and local government web resources and services.